EW9776 Weather Reports


time (UTC)temp
C
wind
direction
speed
KPH
gust
KPH
rain 1hr
cm
rain 24hr
cm
rain mn
cm
humidity
%
barometer
mb
20260503184535 25 348 4.8 11.3 0.00 0.00 0.00 45 1015.1
20260503183035 24 348 4.8 11.3 0.00 0.00 0.00 45 1015.2
20260503181612 23 338 4.8 9.7 0.00 0.00 0.00 45 1015.4
20260503180037 23 342 1.6 6.4 0.00 0.00 0.00 43 1015.5
20260503173031 23 344 1.6 8.0 0.00 0.00 0.00 42 1015.7
20260503171533 23 271 1.6 6.4 0.00 0.00 0.00 44 1015.7
20260503120110 10 180 0.0 3.2 0.00 0.00 0.00 76 1015.8
20260503100141 13 183 6.4 9.7 0.00 0.00 0.00 65 1015.7
20260503071536 12 202 3.2 4.8 0.00 0.00 0.00 82 1015.7
20260503060111 13 202 0.0 3.2 0.00 0.00 0.00 79 1015.6
20260503054537 14 202 1.6 4.8 0.00 0.00 0.00 76 1015.7
20260503053035 15 164 1.6 6.4 0.00 0.00 0.00 71 1015.6
20260503051532 16 135 3.2 4.8 0.00 0.00 0.00 72 1015.5
20260503050035 15 109 1.6 6.4 0.00 0.00 0.00 69 1015.5
20260503044535 16 165 3.2 9.7 0.00 0.00 0.00 64 1015.4
20260503043037 16 99 3.2 8.0 0.00 0.00 0.00 63 1015.3
20260503041536 17 176 1.6 6.4 0.00 0.00 0.00 61 1015.0
20260503040040 16 157 1.6 6.4 0.00 0.00 0.00 63 1014.8
20260503034537 17 194 1.6 4.8 0.00 0.00 0.00 64 1014.6
20260503033036 17 194 4.8 6.4 0.00 0.00 0.00 64 1014.3
20260503031533 18 185 3.2 6.4 0.00 0.00 0.00 64 1014.0
20260503030032 20 180 1.6 6.4 0.00 0.00 0.00 63 1013.7
20260503021534 22 202 0.0 6.4 0.00 0.00 0.00 59 1013.4
20260503020043 23 202 0.0 1.6 0.00 0.00 0.00 59 1013.4
20260503020037 24 170 1.6 4.8 0.00 0.00 0.00 53 1013.3
20260503013036 25 45 0.0 3.2 0.00 0.00 0.00 49 1013.4
20260503011534 25 16 1.6 6.4 0.00 0.00 0.00 46 1013.4
20260503010111 25 13 1.6 6.4 0.00 0.00 0.00 43 1013.3
20260503004534 26 38 4.8 11.3 0.00 0.00 0.00 34 1013.3
20260503003126 27 88 1.6 11.3 0.00 0.00 0.00 34 1013.2
20260503001608 27 90 1.6 6.4 0.00 0.00 0.00 33 1013.3
20260503000032 27 186 1.6 8.0 0.00 0.00 0.00 33 1013.5
20260502234534 27 91 3.2 11.3 0.00 0.00 0.00 33 1013.7
20260502233038 27 121 3.2 9.7 0.00 0.00 0.00 34 1014.0
20260502230044 26 26 4.8 14.5 0.00 0.00 0.00 39 1014.3
20260502223032 26 316 3.2 9.7 0.00 0.00 0.00 42 1014.5
20260502221609 25 355 6.4 14.5 0.00 0.00 0.00 47 1014.7
20260502220109 24 339 4.8 12.9 0.00 0.00 0.00 49 1014.9
20260502214536 23 303 4.8 9.7 0.00 0.00 0.00 52 1015.0
20260502213143 22 298 4.8 9.7 0.00 0.00 0.00 54 1015.3
20260502210032 21 312 1.6 6.4 0.00 0.00 0.00 57 1015.7
20260502204529 21 302 4.8 8.0 0.00 0.00 0.00 59 1015.6
20260502203036 21 305 4.8 8.0 0.00 0.00 0.00 64 1015.7
20260502201534 20 14 3.2 8.0 0.00 0.00 0.00 68 1015.8
20260502194537 17 8 1.6 4.8 0.00 0.00 0.00 70 1016.3
20260502193036 19 20 3.2 11.3 0.00 0.00 0.00 65 1016.7